Regional Weather Roundup
Issued by NWS Kansas City/Pleasant Hill, MO

Home | Current Version | Previous Version | Text Only | Print | Product List | Glossary On
Versions: 1 2 3 4 5 6 7 8 9 10 11 12 13 14 15 16 17 18 19 20 21 22 23 24 25 26 27
000
ASUS43 KEAX 230010
RWREAX

WEATHER ROUNDUP FOR EASTERN KANSAS AND NORTHWEST MISSOURI
NATIONAL WEATHER SERVICE KANSAS CITY/PLEASANT HILL MO
700 PM CDT SUN APR 22 2018

KSZ040-057-103>105-MOZ028-029-037-043-230100-
...KANSAS CITY METROPOLITAN AREA...

CITY           SKY/WX    TMP DP  RH WIND       PRES   REMARKS
K.C. INTL      CLOUDY    65  40  39 NE15      30.06S
6HR MIN TEMP:  60; 6HR MAX TEMP:  67;

K.C. DOWNTOWN  CLOUDY    66  43  43 E10G21    30.05R
6HR MIN TEMP:  58; 6HR MAX TEMP:  68;

LEES SUMMIT    CLOUDY    61  46  57 E13       30.07R
6HR MIN TEMP:  53; 6HR MAX TEMP:  64;

OLATHE - IXD   CLOUDY    62  45  53 NE12      30.06S
6HR MIN TEMP:  55; 6HR MAX TEMP:  65;

OLATHE - OJC   CLOUDY    61  45  55 E15       30.05S
6HR MIN TEMP:  54; 6HR MAX TEMP:  62;

LAWRENCE       PTSUNNY   66  43  43 E10       30.05F

$$

MOZ001>008-011>017-020>025-030>033-038>040-044>046-053-054-230100-
...NORTHERN AND CENTRAL MISSOURI...

CITY           SKY/WX    TMP DP  RH WIND       PRES   REMARKS
ST. JOSEPH     CLOUDY    68  41  37 E8        30.08S
6HR MIN TEMP:  57; 6HR MAX TEMP:  71;

MOSBY          CLOUDY    64  41  42 E13       30.07S
WARRENSBURG    CLOUDY    61  46  59 NE9       30.05S
WHITEMAN AFB   CLOUDY    60  47  62 NE13      30.01S
6HR MIN TEMP:  53; 6HR MAX TEMP:  60; 6HR PCP:  0.01;

CLINTON        CLOUDY    57  48  72 NE16G23   30.03S
SEDALIA        CLOUDY    59  47  64 NE13      30.05S
6HR MIN TEMP:  55; 6HR MAX TEMP:  61; 6HR PCP:  0.01;

WARSAW         NOT AVBL
CHILLICOTHE      N/A     65  40  39 NE6       30.11S
6HR MIN TEMP:  59; 6HR MAX TEMP:  71;

KIRKSVILLE     CLOUDY    61  38  42 E9        30.12S
6HR MIN TEMP:  61; 6HR MAX TEMP:  70;


$$

MOZ041-047>049-056>058-063>065-088>090-097-230100-
...EASTERN AND SOUTHERN MISSOURI...

CITY           SKY/WX    TMP DP  RH WIND       PRES   REMARKS
ST. LOUIS INTL LGT RAIN  58  46  64 NE8       30.05S
6HR MIN TEMP:  57; 6HR MAX TEMP:  60; 6HR PCP:  0.02;

SPIRIT OF STL  LGT RAIN  58  46  64 NE8       30.03F
COLUMBIA       LGT RAIN  56  42  59 NE10      30.05S
JEFFERSON CITY LGT RAIN  55  41  59 VRB7      30.04S
ROLLA          LGT RAIN  49  46  90 NE16G25   30.01S FOG
OSAGE BEACH    RAIN      51  48  89 NE16G24   30.02R
SPRINGFIELD    LGT RAIN  55  53  93 NE14      29.94S
BRANSON        LGT RAIN  54  54 100 CALM      29.93F FOG
JOPLIN         CLOUDY    57  54  89 NE10      29.97S
WEST PLAINS    CLOUDY    53  51  93 N9        29.90S

$$

IAZ060-094-KSZ022-034>040-054-083-096-NEZ052-066-093-230100-
...KANSAS...SOUTHEAST NEBRASKA AND IOWA...

CITY           SKY/WX    TMP DP  RH WIND       PRES   REMARKS
TOPEKA         PTSUNNY   67  43  41 E14G22    30.06S
6HR MIN TEMP:  53; 6HR MAX TEMP:  69; 6HR PCP: TRACE;

MANHATTAN      PTSUNNY   66  44  45 NE12      30.07F
EMPORIA        CLOUDY    59  49  69 NE10      30.05R
CHANUTE        CLOUDY    55  51  86 N3        30.04R
WICHITA        CLOUDY    55  45  68 N12       30.08S
OMAHA          PTSUNNY   69  31  24 E14       30.13S
LINCOLN        CLOUDY    66  33  29 E6        30.14S
FALLS CITY     MOSUNNY   67  37  33 E15G21    30.09R
LAMONI         CLOUDY    68  34  28 E10G22    30.11S
DES MOINES     PTSUNNY   66  20  17 E10       30.17R

$$





USA.gov is the U.S. government's official web portal to all federal, state and local government web resources and services.